Regional Weather Roundup
Issued by NWS Charleston, SC

Current Version | Previous Version | Graphics & Text | Print | Product List | Glossary On
Versions: 1 2 3 4 5 6 7 8 9 10 11 12 13 14 15 16 17 18 19 20 21 22 23 24 25 26 27 28 29 30 31 32 33 34 35 36 37 38 39 40 41 42 43 44 45 46 47 48 49 50
000 ASUS42 KCHS 211712 RWRCHS REGIONAL WEATHER ROUNDUP NATIONAL WEATHER SERVICE CHARLESTON SC 1200 PM EST TUE NOV 21 2017 NOTE: "FAIR" INDICATES FEW OR NO CLOUDS BELOW 12,000 FEET WITH NO SIGNIFICANT WEATHER AND/OR OBSTRUCTIONS TO VISIBILITY. NOT ALL STATIONS ARE QUALITY CONTROLLED. USE DATA WITH CAUTION... ESPECIALLY DEWPOINT OBSERVATIONS. SCZ027-030-031-034>040-042>050-211800- ...SOUTHEAST SOUTH CAROLINA... CITY SKY/WX TMP DP RH WIND PRES REMARKS N CHARLESTON PTSUNNY 71 57 61 E6 30.10F WATERFRONT PRK NOT AVBL JOHNS ISLAND FAIR 72 59 64 NE10 30.10F PINOPOLIS N/A 61 54 77 E5 30.05F MONCKS CORNER FAIR 68 52 56 E9 30.11F SUMMERVILLE FAIR 68 54 60 E3 30.11F BEAUFORT MCAS CLOUDY 70 57 63 E7 30.10F BEAUFORT ARPT FAIR 70 57 64 NE7 30.09F HILTON HEAD IS PTSUNNY 68 57 68 NE8 30.10F WALTERBORO MOSUNNY 66 54 63 E5 30.11F ALLENDALE FAIR 64 54 68 CALM 30.10F ...SOUTHERN MIDLANDS AND PEE DEE... CITY SKY/WX TMP DP RH WIND PRES REMARKS GEORGETOWN FAIR 64 55 72 NE7 30.14F KINGSTREE PTSUNNY 61 48 63 E5 30.14F ORANGEBURG CLOUDY 61 50 67 E5 30.12F BARNWELL N/A 63 54 72 E5 30.12F AIKEN PTSUNNY 61 50 67 SE3 30.15F MANNING FAIR 61 54 77 MISG 30.13F COLUMBIA CLOUDY 58 48 69 E7 30.13F SUMTER CLOUDY 61 47 62 E7 30.11F FLORENCE CLOUDY 61 49 64 E7 30.17F MYRTLE BEACH CLOUDY 65 52 62 NE10 30.16F N MYRTLE BEACH CLOUDY 66 51 58 NE9 30.15F $$ GAZ063-065-086>088-099>101-113>116-118-119-134>141-150-211800- ...SOUTHEAST GEORGIA... CITY SKY/WX TMP DP RH WIND PRES REMARKS SAVANNAH ARPT CLOUDY 71 58 63 E8 30.08F HUNTER AAF CLOUDY 70 59 66 E9 30.06F FORT STEWART CLOUDY 67 57 70 NE7 30.05F STATESBORO PTSUNNY 65 51 60 NE3 30.09F SYLVANIA CLOUDY 65 56 72 E3 30.11F CLAXTON PTSUNNY 66 56 71 CALM 30.10F ...CSRA...CENTRAL AND FAR SOUTHEAST GEORGIA... CITY SKY/WX TMP DP RH WIND PRES REMARKS THOMSON CLOUDY 65 52 62 S6 30.16F AUGUSTA-BUSH CLOUDY 63 50 62 VRB3 30.11F AUGUSTA-DANIEL CLOUDY 63 49 60 SE7 30.12F SWAINSBORO FAIR 63 54 72 NE5 30.09F VIDALIA CLOUDY 66 55 68 E6 30.07F EASTMAN FAIR 66 48 51 E3 30.11F HAZLEHURST FAIR 66 50 57 CALM 30.07F ALMA CLOUDY 70 58 65 CALM 30.06F WAYCROSS CLOUDY 72 57 59 SE7 30.06F JESUP CLOUDY 72 59 64 CALM 30.06F BAXLEY FAIR 66 57 72 E3 30.06F BRUNSWICK CLOUDY 72 61 68 E7 30.06F SAINT SIMONS LGT RAIN 70 63 78 CALM 30.04F $$ SCZ027-028-034-036>038-045-046-048>050-GAZ119-141-211800- ...LAKE AND SUPPLEMENTAL COASTAL OBSERVATIONS... STATION/POSITION TIME TEMP WIND PRES WAVE SWELL AIR SEA DIR/SP/G HT/PER HT/PER/DIR (UTC) (F) (DEG/KT/KT) (MB) (FT/S) (FT/S/D) WINYAH BAY 1545 59 50/ 10 1022.0 LAKE MURRAY 1620 56 110/ 5/ 8 1020.0 ACE BASIN NERRS 1545 68 40/ 4 1021.0 FORT PULASKI 1642 65 61 60/ 12/ 14 1019.2F SAPELO ISLAND 1600 72 110/ 5 1019.0 $$ ANZ835-935-AMZ111-154-330-350-352-354-370-450-454-472-211800- ...C-MAN AND BUOY OBSERVATIONS... STATION/POSITION TIME TEMP WIND PRES WAVE SWELL AIR SEA DIR/SP/G HT/PER HT/PER/DIR (UTC) (F) (DEG/KT/KT) (MB) (FT/S) (FT/S/D) BUOY 41004 1650 72 74 140/ 16/ 19 1019.0F 4/ 6 2/100/ 9 BUOY 41008 1650 71 68 120/ 10/ 12 1017.6F 4/ 6 3/110/ 6 FOLLY BEACH CMAN 1600 62 20/ 10/ 11 1021.4F CAPERS NEARSHORE 1608 61 62 50/ 14/ 19 1020.6F FRIPP NEARSHORE 1608 62 62 60/ 12/ 21 1019.8F STATION/POSITION TIME TEMP WIND PRES WAVE SWELL AIR SEA DIR/SP/G HT/PER HT/PER/DIR (UTC) (F) (DEG/KT/KT) (MB) (FT/S) (FT/S/D) 5E ST. MARYS GA 1630 68 N/A 5/ 6 FRYING PAN BUOY 1650 71 71 140/ 16/ 17 1020.8F 3/ 5 2/ 80/ 8 BUOY 41025 1700 69 77 180/ 14/ 16 1023.4 CAPE LOOKOUT NC 1600 30/ 8/ 9 1023.9F BUOY 41002 1650 73 76 110/ 21/ 25 1021.0F 5/ 5 2/ 80/11 BUOY 41010 NOT AVBL ST AUGUSTINE FL 1700 72 68 130/ 4/ 4 1016.8F $$

USA.gov is the U.S. government's official web portal to all federal, state and local government web resources and services.